Location: Hyderabad
(17.3833°N, 78.4667°E)
Time: 23:54:40
(UTC+05:30)

H-2A R/B - Visible Passes

Search period start: 19 October 2017 00:00
Search period end: 29 October 2017 00:00
Orbit: 267 x 33063 km, 28.5° (Epoch: 18 October)

Date Brightness Start Highest point End Pass type
(mag) Time Alt. Az. Time Alt. Az. Time Alt. Az.
20 Oct 6.3 05:09:06 16° W 06:52:12 37° WNW 13:39:14 10° SSW visible
21 Oct 7.6 00:30:07 72° E 00:30:07 72° E 08:49:45 10° ESE visible
22 Oct 6.5 05:31:41 10° W 07:16:39 31° WNW 13:58:04 10° SW visible
23 Oct 7.6 00:52:41 81° E 00:52:41 81° E 09:12:36 10° ESE visible
24 Oct 9.9 00:04:16 10° ENE 02:08:13 16° ENE 03:20:05 10° ENE visible
25 Oct 7.6 01:15:15 89° NE 01:15:15 89° NE 09:35:05 10° SE visible
25 Oct 5.8 23:07:14 10° ENE 02:31:51 22° ENE 04:02:22 10° E visible
27 Oct 7.4 01:37:49 82° WNW 01:50:05 84° NNW 09:57:14 10° SE visible
27 Oct 5.7 20:58:50 11° ENE 20:58:50 11° ENE 04:36:19 10° E visible
